DLH147 EDDN-EDDF

Flight info

Callsign DLH147
Flight time 0h 22m
Altitude 20000
Route SUKAD1G SUKAD DCT PIWAW T159 SPESA SPESA5B
Aircraft A319/M-SDE3FGHIRWY/LB1

Departure

Time 2026-05-05 16:49
Airport Nuremberg Airport (EDDN)

Arrival

Time 2026-05-05 17:12
Airport Frankfurt Main Airport (EDDF)
Time Latitude Longitude Altitude Speed Heading
2026-05-05 16:19 49.49519 11.07724 1026 ft 0 kts 188°
2026-05-05 16:39 49.49522 11.07724 1026 ft 2 kts 188°
2026-05-05 16:40 49.49547 11.07730 1026 ft 4 kts 189°
2026-05-05 16:40 49.49569 11.07734 1026 ft 4 kts 167°
2026-05-05 16:40 49.49589 11.07714 1027 ft 4 kts 110°
2026-05-05 16:40 49.49592 11.07699 1027 ft 1 kts 98°
2026-05-05 16:43 49.49588 11.07740 1027 ft 5 kts 98°
2026-05-05 16:43 49.49585 11.07785 1025 ft 3 kts 97°
2026-05-05 16:43 49.49582 11.07818 1027 ft 5 kts 97°
2026-05-05 16:44 49.49570 11.07926 1026 ft 15 kts 98°
2026-05-05 16:44 49.49554 11.08092 1028 ft 15 kts 98°
2026-05-05 16:44 49.49538 11.08256 1028 ft 15 kts 98°
2026-05-05 16:44 49.49569 11.08352 1031 ft 9 kts 13°
2026-05-05 16:45 49.49612 11.08406 1034 ft 10 kts 74°
2026-05-05 16:45 49.49602 11.08549 1035 ft 16 kts 99°
2026-05-05 16:45 49.49585 11.08737 1037 ft 19 kts 98°
2026-05-05 16:45 49.49566 11.08939 1039 ft 19 kts 98°
2026-05-05 16:46 49.49546 11.09138 1042 ft 17 kts 98°
2026-05-05 16:46 49.49531 11.09295 1045 ft 13 kts 96°
2026-05-05 16:46 49.49550 11.09399 1047 ft 8 kts 57°
2026-05-05 16:46 49.49575 11.09454 1048 ft 6 kts 54°
2026-05-05 16:47 49.49590 11.09486 1049 ft 2 kts 54°
2026-05-05 16:47 49.49616 11.09534 1051 ft 10 kts 43°
2026-05-05 16:47 49.49690 11.09544 1054 ft 11 kts 316°
2026-05-05 16:47 49.49706 11.09458 1051 ft 0 kts 279°
2026-05-05 16:48 49.49707 11.09454 1051 ft 1 kts 279°
2026-05-05 16:48 49.49727 11.09255 1048 ft 56 kts 279°
2026-05-05 16:49 49.49825 11.08253 1034 ft 131 kts 278°
2026-05-05 16:49 49.49967 11.06773 1606 ft 140 kts 276°
2026-05-05 16:49 49.50112 11.05295 2306 ft 141 kts 281°
2026-05-05 16:49 49.50273 11.03693 2791 ft 163 kts 281°
2026-05-05 16:50 49.50457 11.01852 3238 ft 186 kts 280°
2026-05-05 16:50 49.50663 10.99758 3669 ft 210 kts 279°
2026-05-05 16:50 49.50893 10.97388 4176 ft 237 kts 279°
2026-05-05 16:50 49.51146 10.94749 4821 ft 262 kts 278°
2026-05-05 16:51 49.51420 10.91917 5791 ft 271 kts 277°
2026-05-05 16:51 49.51699 10.89019 6890 ft 276 kts 276°
2026-05-05 16:51 49.51979 10.86088 7990 ft 279 kts 276°
2026-05-05 16:51 49.52263 10.83111 9104 ft 283 kts 275°
2026-05-05 16:52 49.52551 10.80091 10124 ft 291 kts 275°
2026-05-05 16:52 49.52853 10.76883 10594 ft 315 kts 275°
2026-05-05 16:52 49.53175 10.73471 11352 ft 327 kts 275°
2026-05-05 16:52 49.53502 10.70028 12288 ft 332 kts 275°
2026-05-05 16:53 49.53840 10.66487 13267 ft 336 kts 276°
2026-05-05 16:53 49.54179 10.62907 14145 ft 341 kts 276°
2026-05-05 16:53 49.54644 10.59301 14978 ft 348 kts 286°
2026-05-05 16:53 49.55790 10.55961 15793 ft 357 kts 301°
2026-05-05 16:54 49.57178 10.52777 16660 ft 360 kts 301°
2026-05-05 16:54 49.58591 10.49572 17497 ft 364 kts 301°
2026-05-05 16:54 49.60025 10.46325 18316 ft 368 kts 301°
2026-05-05 16:54 49.61474 10.43041 19030 ft 372 kts 301°
2026-05-05 16:55 49.62932 10.39726 19596 ft 375 kts 301°
2026-05-05 16:55 49.64396 10.36389 19785 ft 376 kts 301°
2026-05-05 16:55 49.65848 10.33074 19828 ft 370 kts 301°
2026-05-05 16:55 49.67283 10.29786 19833 ft 368 kts 301°
2026-05-05 16:56 49.68711 10.26510 19830 ft 367 kts 301°
2026-05-05 16:56 49.70133 10.23241 19832 ft 367 kts 301°
2026-05-05 16:56 49.71558 10.19960 19828 ft 367 kts 301°
2026-05-05 16:56 49.72981 10.16678 19827 ft 367 kts 301°
2026-05-05 16:57 49.74396 10.13405 19827 ft 367 kts 301°
2026-05-05 16:57 49.75812 10.10127 19825 ft 367 kts 301°
2026-05-05 16:57 49.77234 10.06840 19827 ft 367 kts 301°
2026-05-05 16:57 49.78650 10.03566 19828 ft 367 kts 301°
2026-05-05 16:58 49.80061 10.00298 19523 ft 363 kts 301°
2026-05-05 16:58 49.81452 9.97073 19075 ft 359 kts 300°
2026-05-05 16:58 49.82830 9.93872 18603 ft 356 kts 300°
2026-05-05 16:58 49.84202 9.90682 18133 ft 354 kts 300°
2026-05-05 16:59 49.85554 9.87512 17596 ft 351 kts 300°
2026-05-05 16:59 49.86896 9.84359 17084 ft 350 kts 300°
2026-05-05 16:59 49.88235 9.81216 16554 ft 348 kts 300°
2026-05-05 16:59 49.89561 9.78101 16044 ft 346 kts 300°
2026-05-05 17:00 49.90881 9.74992 15542 ft 344 kts 300°
2026-05-05 17:00 49.92198 9.71892 15037 ft 343 kts 300°
2026-05-05 17:00 49.93495 9.68830 14561 ft 344 kts 299°
2026-05-05 17:00 49.94564 9.65490 14048 ft 340 kts 290°
2026-05-05 17:01 49.95463 9.62111 13550 ft 339 kts 289°
2026-05-05 17:01 49.96342 9.58766 12990 ft 338 kts 289°
2026-05-05 17:01 49.97233 9.55356 12440 ft 336 kts 289°
2026-05-05 17:01 49.98095 9.52037 11908 ft 334 kts 289°
2026-05-05 17:02 49.98965 9.48701 11402 ft 332 kts 289°
2026-05-05 17:02 49.99829 9.45392 10902 ft 329 kts 289°
2026-05-05 17:02 50.00700 9.42070 10413 ft 327 kts 289°
2026-05-05 17:02 50.01555 9.38810 9934 ft 325 kts 289°
2026-05-05 17:03 50.02409 9.35570 9424 ft 323 kts 289°
2026-05-05 17:03 50.03255 9.32352 8896 ft 320 kts 289°
2026-05-05 17:03 50.04088 9.29160 8399 ft 316 kts 289°
2026-05-05 17:03 50.04904 9.26005 7945 ft 312 kts 289°
2026-05-05 17:04 50.05699 9.22899 7493 ft 307 kts 289°
2026-05-05 17:04 50.06477 9.19831 7047 ft 303 kts 289°
2026-05-05 17:04 50.07238 9.16791 6611 ft 300 kts 289°
2026-05-05 17:04 50.07988 9.13773 6245 ft 295 kts 289°
2026-05-05 17:05 50.08722 9.10832 5911 ft 288 kts 289°
2026-05-05 17:05 50.09434 9.07944 5585 ft 282 kts 289°
2026-05-05 17:05 50.10113 9.05167 5288 ft 275 kts 289°
2026-05-05 17:05 50.10792 9.02364 5014 ft 272 kts 289°
2026-05-05 17:06 50.11449 8.99608 4764 ft 269 kts 289°
2026-05-05 17:06 50.12050 8.96942 4546 ft 260 kts 284°
2026-05-05 17:06 50.12207 8.94163 4315 ft 251 kts 264°
2026-05-05 17:06 50.11795 8.91616 4104 ft 242 kts 249°
2026-05-05 17:07 50.11226 8.89211 3996 ft 231 kts 249°
2026-05-05 17:07 50.10695 8.86943 3947 ft 216 kts 249°
2026-05-05 17:07 50.10185 8.84773 3728 ft 212 kts 249°
2026-05-05 17:07 50.09683 8.82639 3468 ft 207 kts 250°
2026-05-05 17:08 50.09191 8.80551 3195 ft 203 kts 250°
2026-05-05 17:08 50.08710 8.78511 2965 ft 199 kts 250°
2026-05-05 17:08 50.08238 8.76511 2677 ft 195 kts 251°
2026-05-05 17:08 50.07776 8.74556 2415 ft 190 kts 251°
2026-05-05 17:09 50.07323 8.72644 2165 ft 186 kts 251°
2026-05-05 17:09 50.06883 8.70784 1920 ft 179 kts 252°
2026-05-05 17:09 50.06467 8.69029 1694 ft 168 kts 252°
2026-05-05 17:09 50.06080 8.67399 1490 ft 151 kts 252°
2026-05-05 17:10 50.05735 8.65947 1294 ft 135 kts 252°
2026-05-05 17:10 50.05419 8.64613 1147 ft 128 kts 251°
2026-05-05 17:10 50.05117 8.63340 1006 ft 123 kts 251°
2026-05-05 17:10 50.04833 8.62119 862 ft 119 kts 251°
2026-05-05 17:11 50.04548 8.60919 699 ft 118 kts 249°
2026-05-05 17:11 50.04264 8.59729 558 ft 118 kts 249°
2026-05-05 17:11 50.03974 8.58521 400 ft 120 kts 249°
2026-05-05 17:11 50.03708 8.57396 356 ft 92 kts 250°
2026-05-05 17:12 50.03534 8.56678 357 ft 57 kts 249°
2026-05-05 17:12 50.03441 8.56240 354 ft 34 kts 261°
2026-05-05 17:12 50.03455 8.55894 345 ft 29 kts 279°
2026-05-05 17:12 50.03469 8.55769 344 ft 6 kts 279°
2026-05-05 17:13 50.03479 8.55684 348 ft 11 kts 279°
2026-05-05 17:13 50.03491 8.55535 346 ft 16 kts 270°
2026-05-05 17:13 50.03463 8.55355 350 ft 18 kts 251°
2026-05-05 17:13 50.03420 8.55169 346 ft 19 kts 249°
2026-05-05 17:14 50.03370 8.54966 346 ft 21 kts 250°
2026-05-05 17:14 50.03317 8.54743 337 ft 23 kts 249°
2026-05-05 17:14 50.03274 8.54549 336 ft 11 kts 265°
2026-05-05 17:14 50.03330 8.54470 338 ft 11 kts 339°
2026-05-05 17:15 50.03359 8.54453 336 ft 4 kts 339°
2026-05-05 17:15 50.03381 8.54440 337 ft 0 kts 340°
2026-05-05 17:17 50.03382 8.54440 337 ft 1 kts 340°
2026-05-05 17:17 50.03402 8.54428 338 ft 6 kts 339°
2026-05-05 17:17 50.03473 8.54386 347 ft 14 kts 339°
2026-05-05 17:18 50.03570 8.54330 344 ft 17 kts 341°
2026-05-05 17:18 50.03661 8.54343 347 ft 14 kts 55°
2026-05-05 17:18 50.03700 8.54492 349 ft 17 kts 70°
2026-05-05 17:18 50.03743 8.54673 353 ft 18 kts 69°
2026-05-05 17:19 50.03786 8.54850 351 ft 18 kts 70°
2026-05-05 17:19 50.03830 8.55034 353 ft 18 kts 69°
2026-05-05 17:19 50.03877 8.55226 351 ft 19 kts 70°
2026-05-05 17:19 50.03923 8.55426 349 ft 20 kts 69°
2026-05-05 17:20 50.03973 8.55634 355 ft 21 kts 69°
2026-05-05 17:20 50.04026 8.55853 358 ft 22 kts 69°
2026-05-05 17:20 50.04097 8.55967 352 ft 15 kts 352°
2026-05-05 17:20 50.04195 8.55909 358 ft 15 kts 334°
2026-05-05 17:21 50.04205 8.55791 355 ft 10 kts 237°
2026-05-05 17:21 50.04141 8.55810 355 ft 11 kts 160°
2026-05-05 17:21 50.04119 8.55822 357 ft 0 kts 160°